Weather History for Cedar City, UT

Change the Weather History Date:

Friday, December 7, 2012

  Actual Average Record
Temperature  
Mean Temperature 37 °F 30 °F  
Max Temperature 50 °F 43 °F 67 °F (1959)
Min Temperature 24 °F 17 °F -15 °F (1951)
Degree Days  
Heating Degree Days 28 35  
Month to date heating degree days 155 242  
Since 1 July heating degree days 1291 1684  
Cooling Degree Days 0 0  
Month to date cooling degree days 0 0  
Year to date cooling degree days 715 588  
Moisture  
Dew Point 27 °F    
Average Humidity 66    
Maximum Humidity 92    
Minimum Humidity 39    
Precipitation  
Precipitation 0.00 in 0.03 in 0.59 in (1982)
Month to date precipitation T 0.18  
Year to date precipitation 11.45 10.65  
Sea Level Pressure  
Sea Level Pressure 30.02 in    
Wind  
Wind Speed 4 mph (NNE)    
Max Wind Speed 10 mph    
Max Gust Speed 13 mph    
Visibility 10 miles    
Events      
T = Trace of Precipitation, MM = Missing Value Source: NWS Daily Summary

Daily Weather History Graph

Daily Weather History Graph

Search for Another Location

Airport:

Trip Planner

Search our weather history database for the weather conditions in past years. The results will help you decide how hot, cold, wet, or windy it might be!

Date:

Astronomy

Dec. 07, 2012 Rise Set
Actual Time 7:34 AM MST 5:13 PM MST
Civil Twilight 7:05 AM MST 5:42 PM MST
Nautical Twilight 6:32 AM MST 6:15 PM MST
Astronomical Twilight 6:01 AM MST 6:47 PM MST
Moon 1:04 AM MST (12/7) 1:07 PM MST (12/7)
Length of Visible Light 10h 37m
Length of Day
9h 38m
Last Quarter, 38% of the Moon is Illuminated
Dec 7
Last Quarter
Dec 13
New
Dec 19
First Quarter
Dec 28
Full
Jan 4
Last Quarter

Hourly Weather History & Observations

Time (MST) Temp. Windchill Dew Point Humidity Pressure Visibility Wind Dir Wind Speed Gust Speed Precip Events Conditions
12:53 AM 35.1 °F 30.1 °F 28.9 °F 78% 29.92 in 10.0 mi SSE 5.8 mph - N/A   Clear
1:53 AM 28.0 °F 21.7 °F 24.1 °F 85% 29.96 in 10.0 mi NE 5.8 mph - N/A   Clear
2:53 AM 30.9 °F 24.3 °F 27.0 °F 85% 29.95 in 10.0 mi SSE 6.9 mph - N/A   Clear
3:53 AM 30.0 °F - 27.0 °F 88% 29.95 in 10.0 mi Calm Calm - N/A   Mostly Cloudy
4:53 AM 32.0 °F 28.7 °F 28.0 °F 85% 29.95 in 10.0 mi NE 3.5 mph - N/A   Overcast
5:53 AM 30.9 °F 27.5 °F 27.0 °F 85% 30.00 in 10.0 mi NE 3.5 mph - N/A   Overcast
6:53 AM 25.0 °F 18.1 °F 23.0 °F 92% 30.04 in 10.0 mi NNW 5.8 mph - N/A   Clear
7:17 AM 26.6 °F - 26.6 °F 100% 30.04 in 10.0 mi Calm Calm - N/A   Mostly Cloudy
7:44 AM 28.4 °F - 26.6 °F 93% 30.05 in 10.0 mi Calm Calm - N/A   Scattered Clouds
7:53 AM 27.0 °F 21.6 °F 25.0 °F 92% 30.06 in 10.0 mi NNE 4.6 mph - N/A   Partly Cloudy
8:07 AM 28.4 °F - 24.8 °F 86% 30.06 in 10.0 mi Calm Calm - N/A   Mostly Cloudy
8:28 AM 30.2 °F - 26.6 °F 86% 30.07 in 10.0 mi Calm Calm - N/A   Mostly Cloudy
8:53 AM 33.1 °F - 30.0 °F 89% 30.07 in 10.0 mi Calm Calm - N/A   Partly Cloudy
9:53 AM 39.9 °F 36.7 °F 32.0 °F 73% 30.06 in 10.0 mi NE 4.6 mph - N/A   Clear
10:53 AM 42.1 °F 37.7 °F 32.0 °F 67% 30.08 in 10.0 mi North 6.9 mph - N/A   Scattered Clouds
11:00 AM 42.8 °F 38.6 °F 32.0 °F 66% 30.09 in 10.0 mi NNW 6.9 mph - N/A   Mostly Cloudy
11:53 AM 42.1 °F - 30.9 °F 65% 30.06 in 10.0 mi Calm Calm - N/A   Overcast
12:53 PM 45.0 °F 43.5 °F 30.9 °F 58% 30.03 in 10.0 mi South 3.5 mph - N/A   Scattered Clouds
1:53 PM 48.0 °F - 30.0 °F 50% 30.01 in 10.0 mi NNW 4.6 mph - N/A   Clear
2:53 PM 50.0 °F - 27.0 °F 41% 29.98 in 10.0 mi NNW 6.9 mph - N/A   Clear
3:53 PM 48.9 °F - 26.1 °F 41% 29.98 in 10.0 mi NNW 8.1 mph - N/A   Clear
4:53 PM 44.1 °F 40.1 °F 25.0 °F 47% 30.00 in 10.0 mi NNW 6.9 mph - N/A   Clear
7:53 PM 33.1 °F - 21.9 °F 64% 30.07 in 10.0 mi Calm Calm - N/A   Clear
8:53 PM 30.9 °F 26.2 °F 21.9 °F 69% 30.05 in 10.0 mi SSW 4.6 mph - N/A   Clear
9:53 PM 28.0 °F - 21.0 °F 75% 30.04 in 10.0 mi Calm Calm - N/A   Clear
10:53 PM 28.9 °F 23.9 °F 21.0 °F 72% 30.02 in 10.0 mi SSE 4.6 mph - N/A   Clear
11:53 PM 28.9 °F 23.9 °F 19.9 °F 69% 30.01 in 10.0 mi SSE 4.6 mph - N/A   Clear